Location: Earls Croome
(52.0667°N, 2.2000°W)
Time: 17:09:11
(UTC+00:00)

Cosmos 1328 Rocket - Pass Details

Date: 17 November 2019
Orbit: 600 x 628 km, 82.5° (Epoch: 05 December)

Event Time Altitude Azimuth Distance (km) Brightness Sun altitude
Exits shadow 06:01:13 - 340° (NNW) 2,405 6.3 -13.7°
Reaches altitude 10° 06:02:21 10° 335° (NNW) 1,970 5.8 -13.5°
Maximum altitude 06:06:22 37° 268° (W) 942 4.0 -12.9°
Drops below altitude 10° 06:10:20 10° 201° (SSW) 1,944 6.1 -12.3°
Sets 06:12:38 0° 193° (SSW) 2,841 7.0 -12.0°
